Time,TemperatureF,DewpointF,PressureIn,WindDirection,WindDirectionDegrees,WindSpeedMPH,WindSpeedGustMPH,Humidity,HourlyPrecipIn,Conditions,Clouds,dailyrainin,SolarRadiationWatts/m^2,SoftwareType,DateUTC
2013-03-06 00:01:00,57.0,53.0,-100.00,NNE,16,11.0,23.0,85,0.00,,,0.00,0.000000,,2013-03-06 10:01:00,
2013-03-06 00:22:00,57.0,53.0,-100.00,NNE,16,11.0,23.0,85,0.00,,,0.00,0.000000,,2013-03-06 10:22:00,
2013-03-06 00:32:00,57.0,53.0,-100.00,NNE,16,11.0,23.0,85,0.00,,,0.00,0.000000,,2013-03-06 10:32:00,
2013-03-06 00:42:00,57.0,53.0,-100.00,NNE,16,11.0,23.0,85,0.00,,,0.00,0.000000,,2013-03-06 10:42:00,
2013-03-06 00:52:00,57.0,53.0,-100.00,NNE,16,11.0,23.0,85,0.00,,,0.00,0.000000,,2013-03-06 10:52:00,
2013-03-06 01:01:00,57.0,51.0,-100.00,NNE,12,10.0,16.0,79,0.00,,,0.00,0.000000,,2013-03-06 11:01:00,
2013-03-06 01:23:00,57.0,51.0,-100.00,NNE,12,10.0,16.0,79,0.00,,,0.00,0.000000,,2013-03-06 11:23:00,
2013-03-06 01:32:00,57.0,51.0,-100.00,NNE,12,10.0,16.0,79,0.00,,,0.00,0.000000,,2013-03-06 11:32:00,
2013-03-06 01:42:00,57.0,51.0,-100.00,NNE,12,10.0,16.0,79,0.00,,,0.00,0.000000,,2013-03-06 11:42:00,
2013-03-06 01:52:00,57.0,51.0,-100.00,NNE,12,10.0,16.0,79,0.00,,,0.00,0.000000,,2013-03-06 11:52:00,
2013-03-06 02:01:00,56.0,52.0,-100.00,NNE,20,10.0,14.0,86,0.00,,,0.00,0.000000,,2013-03-06 12:01:00,
2013-03-06 02:33:00,56.0,52.0,-100.00,NNE,20,10.0,14.0,86,0.00,,,0.00,0.000000,,2013-03-06 12:33:00,
2013-03-06 02:42:00,56.0,52.0,-100.00,NNE,20,10.0,14.0,86,0.00,,,0.00,0.000000,,2013-03-06 12:42:00,
2013-03-06 02:52:00,56.0,52.0,-100.00,NNE,20,10.0,14.0,86,0.00,,,0.00,0.000000,,2013-03-06 12:52:00,
2013-03-06 03:01:00,57.0,52.0,-100.00,North,8,7.0,15.0,83,0.00,,,0.00,0.000000,,2013-03-06 13:01:00,
2013-03-06 03:32:00,57.0,52.0,-100.00,North,8,7.0,15.0,83,0.00,,,0.00,0.000000,,2013-03-06 13:32:00,
2013-03-06 03:42:00,57.0,52.0,-100.00,North,8,7.0,15.0,83,0.00,,,0.00,0.000000,,2013-03-06 13:42:00,
2013-03-06 03:52:00,57.0,52.0,-100.00,North,8,7.0,15.0,83,0.00,,,0.00,0.000000,,2013-03-06 13:52:00,
2013-03-06 04:01:00,57.0,53.0,-100.00,North,359,11.0,18.0,85,0.00,,,0.00,0.000000,,2013-03-06 14:01:00,
2013-03-06 04:32:00,57.0,53.0,-100.00,North,359,11.0,18.0,85,0.00,,,0.00,0.000000,,2013-03-06 14:32:00,
2013-03-06 04:42:00,57.0,53.0,-100.00,North,359,11.0,18.0,85,0.00,,,0.00,0.000000,,2013-03-06 14:42:00,
2013-03-06 04:52:00,57.0,53.0,-100.00,North,359,11.0,18.0,85,0.00,,,0.00,0.000000,,2013-03-06 14:52:00,
2013-03-06 05:01:00,58.0,52.0,-100.00,NNE,12,13.0,20.0,81,0.00,,,0.00,0.000000,,2013-03-06 15:01:00,
2013-03-06 05:22:00,58.0,52.0,-100.00,NNE,12,13.0,20.0,81,0.00,,,0.00,0.000000,,2013-03-06 15:22:00,
2013-03-06 05:32:00,58.0,52.0,-100.00,NNE,12,13.0,20.0,81,0.00,,,0.00,0.000000,,2013-03-06 15:32:00,
2013-03-06 05:42:00,58.0,52.0,-100.00,NNE,12,13.0,20.0,81,0.00,,,0.00,0.000000,,2013-03-06 15:42:00,
2013-03-06 05:52:00,58.0,52.0,-100.00,NNE,12,13.0,20.0,81,0.00,,,0.00,0.000000,,2013-03-06 15:52:00,
2013-03-06 06:01:00,57.0,52.0,-100.00,NNE,23,13.0,21.0,83,0.00,,,0.00,0.000000,,2013-03-06 16:01:00,
2013-03-06 06:32:00,57.0,52.0,-100.00,NNE,23,13.0,21.0,83,0.00,,,0.00,0.000000,,2013-03-06 16:32:00,
2013-03-06 06:42:00,57.0,52.0,-100.00,NNE,23,13.0,21.0,83,0.00,,,0.00,0.000000,,2013-03-06 16:42:00,
2013-03-06 06:52:00,57.0,52.0,-100.00,NNE,23,13.0,21.0,83,0.00,,,0.00,0.000000,,2013-03-06 16:52:00,
2013-03-06 07:01:00,58.0,54.0,-100.00,NNE,19,13.0,23.0,85,0.00,,,0.00,5.000000,,2013-03-06 17:01:00,
2013-03-06 07:22:00,58.0,54.0,-100.00,NNE,19,13.0,23.0,85,0.00,,,0.00,5.000000,,2013-03-06 17:22:00,
2013-03-06 07:32:00,58.0,54.0,-100.00,NNE,19,13.0,23.0,85,0.00,,,0.00,5.000000,,2013-03-06 17:32:00,
2013-03-06 07:42:00,58.0,54.0,-100.00,NNE,19,13.0,23.0,85,0.00,,,0.00,5.000000,,2013-03-06 17:42:00,
2013-03-06 07:52:00,58.0,54.0,-100.00,NNE,19,13.0,23.0,85,0.00,,,0.00,5.000000,,2013-03-06 17:52:00,
2013-03-06 08:01:00,62.0,54.0,-100.00,NNE,14,14.0,20.0,74,0.00,,,0.00,121.000000,,2013-03-06 18:01:00,
2013-03-06 08:32:00,62.0,54.0,-100.00,NNE,14,14.0,20.0,74,0.00,,,0.00,121.000000,,2013-03-06 18:32:00,
2013-03-06 08:42:00,62.0,54.0,-100.00,NNE,14,14.0,20.0,74,0.00,,,0.00,121.000000,,2013-03-06 18:42:00,
2013-03-06 08:52:00,62.0,54.0,-100.00,NNE,14,14.0,20.0,74,0.00,,,0.00,121.000000,,2013-03-06 18:52:00,
2013-03-06 09:01:00,68.0,53.0,-100.00,NNE,19,12.0,20.0,58,0.00,,,0.00,374.000000,,2013-03-06 19:01:00,
2013-03-06 09:32:00,68.0,53.0,-100.00,NNE,19,12.0,20.0,58,0.00,,,0.00,374.000000,,2013-03-06 19:32:00,
2013-03-06 09:43:00,68.0,53.0,-100.00,NNE,19,12.0,20.0,58,0.00,,,0.00,374.000000,,2013-03-06 19:43:00,
2013-03-06 09:52:00,68.0,53.0,-100.00,NNE,19,12.0,20.0,58,0.00,,,0.00,374.000000,,2013-03-06 19:52:00,
2013-03-06 10:01:00,71.0,53.0,-100.00,NNE,24,9.0,17.0,53,0.00,,,0.00,641.000000,,2013-03-06 20:01:00,
2013-03-06 10:22:00,71.0,53.0,-100.00,NNE,24,9.0,17.0,53,0.00,,,0.00,641.000000,,2013-03-06 20:22:00,
2013-03-06 10:33:00,71.0,53.0,-100.00,NNE,24,9.0,17.0,53,0.00,,,0.00,641.000000,,2013-03-06 20:33:00,
2013-03-06 10:42:00,71.0,53.0,-100.00,NNE,24,9.0,17.0,53,0.00,,,0.00,641.000000,,2013-03-06 20:42:00,
2013-03-06 10:52:00,71.0,53.0,-100.00,NNE,24,9.0,17.0,53,0.00,,,0.00,641.000000,,2013-03-06 20:52:00,
2013-03-06 11:01:00,72.0,53.0,-100.00,NE,42,8.0,17.0,51,0.00,,,0.00,662.000000,,2013-03-06 21:01:00,
2013-03-06 11:32:00,72.0,53.0,-100.00,NE,42,8.0,17.0,51,0.00,,,0.00,662.000000,,2013-03-06 21:32:00,
2013-03-06 11:42:00,72.0,53.0,-100.00,NE,42,8.0,17.0,51,0.00,,,0.00,662.000000,,2013-03-06 21:42:00,
2013-03-06 11:52:00,72.0,53.0,-100.00,NE,42,8.0,17.0,51,0.00,,,0.00,662.000000,,2013-03-06 21:52:00,
2013-03-06 12:01:00,72.0,57.0,-100.00,SE,124,15.0,23.0,60,0.00,,,0.00,741.000000,,2013-03-06 22:01:00,
2013-03-06 12:32:00,72.0,57.0,-100.00,SE,124,15.0,23.0,60,0.00,,,0.00,741.000000,,2013-03-06 22:32:00,
2013-03-06 12:42:00,72.0,57.0,-100.00,SE,124,15.0,23.0,60,0.00,,,0.00,741.000000,,2013-03-06 22:42:00,
2013-03-06 12:52:00,72.0,57.0,-100.00,SE,124,15.0,23.0,60,0.00,,,0.00,741.000000,,2013-03-06 22:52:00,
2013-03-06 13:01:00,70.0,59.0,-100.00,SE,126,18.0,26.0,67,0.00,,,0.00,660.000000,,2013-03-06 23:01:00,
2013-03-06 13:32:00,70.0,59.0,-100.00,SE,126,18.0,26.0,67,0.00,,,0.00,660.000000,,2013-03-06 23:32:00,
2013-03-06 13:42:00,70.0,59.0,-100.00,SE,126,18.0,26.0,67,0.00,,,0.00,660.000000,,2013-03-06 23:42:00,
2013-03-06 13:52:00,70.0,59.0,-100.00,SE,126,18.0,26.0,67,0.00,,,0.00,660.000000,,2013-03-06 23:52:00,
2013-03-06 14:01:00,71.0,59.0,-100.00,ESE,113,16.0,29.0,67,0.00,,,0.00,832.000000,,2013-03-07 00:01:00,
2013-03-06 14:22:00,71.0,59.0,-100.00,ESE,113,16.0,29.0,67,0.00,,,0.00,832.000000,,2013-03-07 00:22:00,
2013-03-06 14:32:00,71.0,59.0,-100.00,ESE,113,16.0,29.0,67,0.00,,,0.00,832.000000,,2013-03-07 00:32:00,
2013-03-06 14:42:00,71.0,59.0,-100.00,ESE,113,16.0,29.0,67,0.00,,,0.00,832.000000,,2013-03-07 00:42:00,
2013-03-06 14:52:00,71.0,59.0,-100.00,ESE,113,16.0,29.0,67,0.00,,,0.00,832.000000,,2013-03-07 00:52:00,
2013-03-06 15:01:00,69.0,57.0,-100.00,East,83,9.0,28.0,65,0.00,,,0.00,616.000000,,2013-03-07 01:01:00,
2013-03-06 15:22:00,69.0,57.0,-100.00,East,83,9.0,28.0,65,0.00,,,0.00,616.000000,,2013-03-07 01:22:00,
2013-03-06 15:32:00,69.0,57.0,-100.00,East,83,9.0,28.0,65,0.00,,,0.00,616.000000,,2013-03-07 01:32:00,
2013-03-06 15:42:00,69.0,57.0,-100.00,East,83,9.0,28.0,65,0.00,,,0.00,616.000000,,2013-03-07 01:42:00,
2013-03-06 15:52:00,69.0,57.0,-100.00,East,83,9.0,28.0,65,0.00,,,0.00,616.000000,,2013-03-07 01:52:00,
2013-03-06 16:01:00,67.0,57.0,-100.00,East,85,9.0,23.0,70,0.00,,,0.00,169.000000,,2013-03-07 02:01:00,
2013-03-06 16:32:00,67.0,57.0,-100.00,East,85,9.0,23.0,70,0.00,,,0.00,169.000000,,2013-03-07 02:32:00,
2013-03-06 16:42:00,67.0,57.0,-100.00,East,85,9.0,23.0,70,0.00,,,0.00,169.000000,,2013-03-07 02:42:00,
2013-03-06 16:52:00,67.0,57.0,-100.00,East,85,9.0,23.0,70,0.00,,,0.00,169.000000,,2013-03-07 02:52:00,
2013-03-06 17:01:00,65.0,59.0,-100.00,ENE,72,9.0,21.0,82,0.00,,,0.00,139.000000,,2013-03-07 03:01:00,
2013-03-06 17:22:00,65.0,59.0,-100.00,ENE,72,9.0,21.0,82,0.00,,,0.00,139.000000,,2013-03-07 03:22:00,
2013-03-06 17:32:00,65.0,59.0,-100.00,ENE,72,9.0,21.0,82,0.00,,,0.00,139.000000,,2013-03-07 03:32:00,
2013-03-06 17:42:00,65.0,59.0,-100.00,ENE,72,9.0,21.0,82,0.00,,,0.00,139.000000,,2013-03-07 03:42:00,
2013-03-06 17:52:00,65.0,59.0,-100.00,ENE,72,9.0,21.0,82,0.00,,,0.00,139.000000,,2013-03-07 03:52:00,
2013-03-06 18:01:00,63.0,58.0,-100.00,NNW,329,8.0,13.0,85,0.00,,,0.00,79.000000,,2013-03-07 04:01:00,
2013-03-06 18:22:00,63.0,58.0,-100.00,NNW,329,8.0,13.0,85,0.00,,,0.00,79.000000,,2013-03-07 04:22:00,
2013-03-06 18:32:00,63.0,58.0,-100.00,NNW,329,8.0,13.0,85,0.00,,,0.00,79.000000,,2013-03-07 04:32:00,
2013-03-06 18:42:00,63.0,58.0,-100.00,NNW,329,8.0,13.0,85,0.00,,,0.00,79.000000,,2013-03-07 04:42:00,
2013-03-06 18:52:00,63.0,58.0,-100.00,NNW,329,8.0,13.0,85,0.00,,,0.00,79.000000,,2013-03-07 04:52:00,
2013-03-06 19:01:00,62.0,55.0,-100.00,NNW,348,8.0,13.0,77,0.00,,,0.00,6.000000,,2013-03-07 05:01:00,
2013-03-06 19:32:00,62.0,55.0,-100.00,NNW,348,8.0,13.0,77,0.00,,,0.00,6.000000,,2013-03-07 05:32:00,
2013-03-06 19:42:00,62.0,55.0,-100.00,NNW,348,8.0,13.0,77,0.00,,,0.00,6.000000,,2013-03-07 05:42:00,
2013-03-06 19:52:00,62.0,55.0,-100.00,NNW,348,8.0,13.0,77,0.00,,,0.00,6.000000,,2013-03-07 05:52:00,
2013-03-06 20:01:00,61.0,55.0,-100.00,NNE,21,12.0,18.0,82,0.00,,,0.00,0.000000,,2013-03-07 06:01:00,
2013-03-06 20:32:00,61.0,55.0,-100.00,NNE,21,12.0,18.0,82,0.00,,,0.00,0.000000,,2013-03-07 06:32:00,
2013-03-06 20:42:00,61.0,55.0,-100.00,NNE,21,12.0,18.0,82,0.00,,,0.00,0.000000,,2013-03-07 06:42:00,
2013-03-06 20:52:00,61.0,55.0,-100.00,NNE,21,12.0,18.0,82,0.00,,,0.00,0.000000,,2013-03-07 06:52:00,
2013-03-06 21:01:00,59.0,55.0,-100.00,North,10,7.0,16.0,88,0.00,,,0.00,0.000000,,2013-03-07 07:01:00,
2013-03-06 21:32:00,59.0,55.0,-100.00,North,10,7.0,16.0,88,0.00,,,0.00,0.000000,,2013-03-07 07:32:00,
2013-03-06 21:43:00,59.0,55.0,-100.00,North,10,7.0,16.0,88,0.00,,,0.00,0.000000,,2013-03-07 07:43:00,
2013-03-06 21:52:00,59.0,55.0,-100.00,North,10,7.0,16.0,88,0.00,,,0.00,0.000000,,2013-03-07 07:52:00,
2013-03-06 22:01:00,58.0,54.0,-100.00,NNE,15,12.0,18.0,87,0.00,,,0.00,0.000000,,2013-03-07 08:01:00,
2013-03-06 22:34:00,58.0,54.0,-100.00,NNE,15,12.0,18.0,87,0.00,,,0.00,0.000000,,2013-03-07 08:34:00,
2013-03-06 22:44:00,58.0,54.0,-100.00,NNE,15,12.0,18.0,87,0.00,,,0.00,0.000000,,2013-03-07 08:44:00,
2013-03-06 22:53:00,58.0,54.0,-100.00,NNE,15,12.0,18.0,87,0.00,,,0.00,0.000000,,2013-03-07 08:53:00,
2013-03-06 23:33:00,58.0,54.0,-100.00,NNE,18,11.0,17.0,87,0.00,,,0.00,0.000000,,2013-03-07 09:33:00,
2013-03-06 23:43:00,58.0,54.0,-100.00,NNE,18,11.0,17.0,87,0.00,,,0.00,0.000000,,2013-03-07 09:43:00,
2013-03-06 23:52:00,58.0,54.0,-100.00,NNE,18,11.0,17.0,87,0.00,,,0.00,0.000000,,2013-03-07 09:52:00,